Location: Estes Par
(40.3770°N, 10.0000°W)
Time: 10:53:23
(UTC-07:00)

ISS - Visible Passes

Search period start: 12 December 2017 00:00
Search period end: 22 December 2017 00:00
Orbit: 402 x 406 km, 51.6° (Epoch: 12 December)

Date Brightness Start Highest point End Pass type
(mag) Time Alt. Az. Time Alt. Az. Time Alt. Az.
12 Dec -2.0 10:54:21 10° NNW 10:56:41 18° NNE 10:58:42 11° ENE visible
12 Dec -1.4 12:30:17 10° NW 12:31:23 19° NW 12:31:23 19° NW visible
13 Dec -3.5 11:38:05 10° NW 11:41:16 45° NNE 11:41:45 41° ENE visible
14 Dec -2.8 10:45:58 10° NW 10:48:52 28° NNE 10:51:45 10° E visible
14 Dec -2.3 12:22:20 10° WNW 12:25:05 36° WSW 12:25:05 36° WSW visible
15 Dec -3.7 11:29:55 10° NW 11:33:11 76° SW 11:36:03 13° SE visible
16 Dec -0.8 12:15:02 10° W 12:17:02 15° SW 12:19:03 10° S visible
17 Dec -1.7 11:22:00 10° WNW 11:24:54 29° SW 11:27:47 10° SSE visible
19 Dec -0.3 11:15:01 10° WSW 11:16:26 12° SW 11:17:49 10° SSW visible
